Siren, WI

3:01 AM CDT on April 26, 2018 (GMT -0500)
Burnett County

Weather History for KRZN - May, 2014

Change the Weather History Date:

Thursday, May 15, 2014

  Actual Average Record
Temperature  
Mean Temperature 40 °F -  
Max Temperature 48 °F - - ()
Min Temperature 33 °F - - ()
Degree Days  
Heating Degree Days 24    
Moisture  
Dew Point 30 °F    
Average Humidity 67    
Maximum Humidity 89    
Minimum Humidity 42    
Precipitation  
Precipitation 0.00 in - - ()
Sea Level Pressure  
Sea Level Pressure 30.14 in    
Wind  
Wind Speed 7 mph (NNE)    
Max Wind Speed 15 mph    
Max Gust Speed 18 mph    
Visibility 10 miles    
Events Rain    
Averages and records for this station are not official NWS values.
T = Trace of Precipitation, MM = Missing Value Source: NWS Daily Summary

Daily Weather History Graph

Daily Weather History Graph

Search for Another Location

Airport or City:

Astronomy

May. 15, 2014 Rise Set
Actual Time 5:37 AM CDT 8:34 PM CDT
Civil Twilight 5:02 AM CDT 9:09 PM CDT
Nautical Twilight 4:18 AM CDT 9:54 PM CDT
Astronomical Twilight 3:25 AM CDT 10:48 PM CDT
Moon 9:42 PM CDT (5/15) 6:26 AM CDT (5/15)
Length of Visible Light 16h 06m
Length of Day
14h 56m
Full, 99% of the Moon is Illuminated
May 15
Full
May 21
Last Quarter
May 28
New
Jun 5
First Quarter
Jun 12
Full

Hourly Weather History & Observations

Time (CDT) Temp. Windchill Dew Point Humidity Pressure Visibility Wind Dir Wind Speed Gust Speed Precip Events Conditions
12:10 AM 41.2 °F 36.0 °F 28.8 °F 61% 30.21 in 10.0 mi NNE 8.1 mph - N/A   Scattered Clouds
12:30 AM 40.5 °F 35.8 °F 29.3 °F 64% 30.20 in 10.0 mi NNE 6.9 mph - N/A   Mostly Cloudy
12:50 AM 40.1 °F 36.9 °F 29.3 °F 65% 30.20 in 10.0 mi North 4.6 mph - N/A   Mostly Cloudy
1:10 AM 40.1 °F 34.7 °F 29.5 °F 66% 30.20 in 10.0 mi NNE 8.1 mph - N/A   Overcast
1:30 AM 39.4 °F 35.2 °F 29.3 °F 67% 30.19 in 10.0 mi North 5.8 mph - N/A   Scattered Clouds
1:50 AM 38.5 °F 32.1 °F 29.3 °F 70% 30.19 in 10.0 mi NNE 9.2 mph - N/A   Clear
2:10 AM 37.8 °F 33.3 °F 29.7 °F 73% 30.18 in 10.0 mi NNE 5.8 mph - N/A   Clear
2:50 AM 36.3 °F 33.7 °F 29.8 °F 77% 30.18 in 10.0 mi North 3.5 mph - N/A   Scattered Clouds
3:30 AM 34.7 °F 31.8 °F 29.7 °F 82% 30.18 in 10.0 mi NNE 3.5 mph - N/A   Clear
3:50 AM 34.9 °F 32.0 °F 29.7 °F 81% 30.17 in 10.0 mi North 3.5 mph - N/A   Scattered Clouds
4:10 AM 34.7 °F 30.6 °F 29.8 °F 82% 30.17 in 10.0 mi NNE 4.6 mph - N/A   Mostly Cloudy
4:30 AM 34.9 °F 30.8 °F 30.0 °F 82% 30.16 in 10.0 mi NNE 4.6 mph - N/A   Scattered Clouds
4:50 AM 35.6 °F 29.2 °F 29.5 °F 78% 30.16 in 10.0 mi NE 8.1 mph - N/A   Clear
5:10 AM 35.2 °F 31.2 °F 29.3 °F 79% 30.16 in 10.0 mi NNE 4.6 mph - N/A   Clear
5:30 AM 34.0 °F 28.8 °F 29.3 °F 83% 30.16 in 10.0 mi NNE 5.8 mph - N/A   Clear
5:50 AM 33.8 °F 30.8 °F 30.0 °F 86% 30.16 in 10.0 mi North 3.5 mph - N/A   Clear
6:10 AM 33.6 °F 30.6 °F 29.8 °F 86% 30.16 in 10.0 mi North 3.5 mph - N/A   Clear
6:30 AM 34.7 °F 29.6 °F 30.0 °F 83% 30.16 in 10.0 mi North 5.8 mph - N/A   Clear
6:50 AM 35.4 °F 30.5 °F 30.2 °F 81% 30.15 in 10.0 mi North 5.8 mph - N/A   Clear
7:10 AM 36.3 °F 30.8 °F 30.2 °F 78% 30.16 in 10.0 mi NNE 6.9 mph - N/A   Clear
7:30 AM 38.3 °F 33.9 °F 30.9 °F 75% 30.16 in 10.0 mi North 5.8 mph - N/A   Clear
7:50 AM 39.7 °F 35.6 °F 30.9 °F 71% 30.16 in 10.0 mi NNE 5.8 mph - N/A   Scattered Clouds
8:10 AM 40.1 °F 34.1 °F 31.1 °F 70% 30.16 in 10.0 mi North 9.2 mph - N/A   Overcast
8:30 AM 40.6 °F 34.3 °F 31.3 °F 69% 30.16 in 10.0 mi NNE 10.4 mph 18.4 mph N/A   Overcast
8:50 AM 41.4 °F 35.7 °F 31.5 °F 68% 30.15 in 10.0 mi NE 9.2 mph 16.1 mph N/A   Overcast
9:10 AM 42.6 °F 36.8 °F 31.5 °F 65% 30.15 in 10.0 mi North 10.4 mph - N/A   Overcast
9:50 AM 43.0 °F 37.2 °F 31.1 °F 63% 30.15 in 10.0 mi North 10.4 mph - N/A   Overcast
10:10 AM 42.8 °F 38.0 °F 31.1 °F 63% 30.15 in 10.0 mi North 8.1 mph - N/A   Overcast
10:30 AM 43.2 °F 37.0 °F 30.4 °F 61% 30.14 in 10.0 mi NNE 11.5 mph - N/A   Overcast
10:50 AM 42.8 °F 37.5 °F 30.4 °F 62% 30.14 in 10.0 mi NNE 9.2 mph - N/A   Overcast
11:10 AM 43.7 °F 36.6 °F 30.6 °F 60% 30.14 in 10.0 mi North 15.0 mph - N/A   Overcast
11:30 AM 43.7 °F 37.7 °F 29.8 °F 58% 30.14 in 10.0 mi NNE 11.5 mph 17.3 mph N/A   Overcast
12:30 PM 44.2 °F 39.2 °F 29.5 °F 56% 30.13 in 10.0 mi North 9.2 mph - N/A   Overcast
12:50 PM 45.3 °F 41.1 °F 28.8 °F 52% 30.13 in 10.0 mi NNE 8.1 mph - N/A   Overcast
2:10 PM 44.8 °F 43.3 °F 28.8 °F 53% 30.12 in 10.0 mi ENE 3.5 mph - N/A   Overcast
2:30 PM 46.2 °F 44.1 °F 28.4 °F 50% 30.12 in 10.0 mi North 4.6 mph - N/A   Overcast
2:50 PM 46.4 °F 42.9 °F 27.1 °F 47% 30.11 in 10.0 mi North 6.9 mph - N/A   Overcast
3:10 PM 45.9 °F 40.8 °F 27.0 °F 48% 30.11 in 10.0 mi North 10.4 mph - N/A   Overcast
3:30 PM 46.2 °F 41.2 °F 26.8 °F 47% 30.11 in 10.0 mi NNE 10.4 mph - N/A   Overcast
3:50 PM 46.6 °F - 27.0 °F 46% 30.10 in 10.0 mi North 8.1 mph - N/A   Overcast
4:10 PM 48.2 °F - 26.8 °F 43% 30.10 in 10.0 mi ENE 5.8 mph - N/A   Overcast
4:30 PM 47.1 °F - 24.8 °F 42% 30.09 in 10.0 mi NE 9.2 mph - N/A   Overcast
4:50 PM 46.4 °F 43.5 °F 25.9 °F 45% 30.09 in 10.0 mi North 5.8 mph - N/A   Overcast
5:10 PM 47.3 °F - 25.9 °F 43% 30.09 in 10.0 mi North 9.2 mph - N/A   Overcast
5:30 PM 44.1 °F 38.1 °F 32.4 °F 63% 30.10 in 10.0 mi NNE 11.5 mph - N/A Rain Light Rain
5:50 PM 44.1 °F 38.1 °F 32.5 °F 64% 30.10 in 10.0 mi NNE 11.5 mph - N/A   Light Drizzle
6:10 PM 44.6 °F 40.2 °F 30.6 °F 58% 30.10 in 10.0 mi North 8.1 mph - N/A   Overcast
6:30 PM 44.8 °F 39.4 °F 30.7 °F 58% 30.10 in 10.0 mi North 10.4 mph - N/A   Overcast
6:50 PM 44.6 °F 40.2 °F 29.3 °F 55% 30.10 in 10.0 mi North 8.1 mph - N/A   Overcast
7:10 PM 43.9 °F 38.8 °F 30.4 °F 59% 30.10 in 10.0 mi NNW 9.2 mph - N/A   Overcast
7:30 PM 43.3 °F 40.7 °F 30.7 °F 61% 30.11 in 10.0 mi NNW 4.6 mph - N/A   Overcast
7:50 PM 43.3 °F 38.6 °F 30.9 °F 62% 30.11 in 10.0 mi North 8.1 mph - N/A   Overcast
8:10 PM 43.3 °F 39.9 °F 31.3 °F 62% 30.11 in 10.0 mi North 5.8 mph - N/A   Overcast
8:30 PM 43.0 °F 37.7 °F 31.6 °F 64% 30.11 in 10.0 mi NNE 9.2 mph - N/A   Overcast
8:50 PM 42.1 °F - 31.1 °F 65% 30.11 in 10.0 mi Calm Calm - N/A   Light Drizzle
9:10 PM 41.5 °F 39.6 °F 31.5 °F 67% 30.12 in 10.0 mi NNW 3.5 mph - N/A   Overcast
9:30 PM 40.1 °F - 33.4 °F 77% 30.12 in 10.0 mi Calm Calm - N/A   Overcast
9:50 PM 39.4 °F 37.2 °F 33.1 °F 78% 30.12 in 10.0 mi WNW 3.5 mph - N/A   Overcast
10:10 PM 39.2 °F - 33.4 °F 80% 30.12 in 10.0 mi Calm Calm - N/A   Overcast
10:30 PM 38.5 °F - 33.8 °F 83% 30.11 in 10.0 mi Calm Calm - N/A   Overcast
10:50 PM 38.7 °F - 33.4 °F 81% 30.11 in 10.0 mi Calm Calm - N/A   Overcast
11:10 PM 36.5 °F - 33.6 °F 89% 30.11 in 10.0 mi Calm Calm - N/A   Overcast
11:30 PM 37.9 °F - 32.9 °F 82% 30.11 in 10.0 mi Calm Calm - N/A   Overcast
11:50 PM 37.6 °F - 32.9 °F 83% 30.10 in 10.0 mi Calm Calm - N/A   Overcast